Flag for Equatorial Guinea Weather past 2 weeks in Malabo, Equatorial Guinea

Now
75 °F

Partly cloudy.


Feels Like: 75 °F
Forecast: 73 / 81 °F
Wind: 9 mph from Southwest

Location: Malabo/Fernando Poo

Current Time: Sep 2, 2014 at 12:32:05 AM

Latest Report: Sep 1, 2014 at 11:00 PM


Visibility: N/A

Pressure: 29.98 "Hg

Humidity: 89%

Dew point: 72 °F

Location of MalaboLocation

Historic Weather in Malabo — Graph

°F

Malabo temperature yesterday

Maximum temperature yesterday: 81 °F (at 4:00 PM)
Minimum temperature yesterday: 73 °F (at 12:00 AM)
Average temperature yesterday: 76 °F

Past Weeks' High & Low Weather Summary

 TemperatureHumidityPressure
High84 °F (Aug 19, 1:00 PM)100% (Aug 20, 7:00 AM)30.04 "Hg (Aug 20, 7:00 AM)
Low70 °F (Aug 22, 3:00 AM)66% (Aug 22, 12:00 PM)29.83 "Hg (Aug 25, 5:00 PM)
Average77 °F85%29.94 "Hg
* Reported Aug 17 11:00 PM — Sep 1 11:00 PM, Malabo, Weather by CustomWeather, © 2014

Note: Actual official high and low records may vary slightly from our data, if they occured in-between our weather recording intervals... More about our weather records

Advertising

Malabo weather history for previous 24 hours

 ConditionsComfort  
Time TempWeatherWind HumidityBarometerVisibility
11:00 PM
Sep 1
75 °FPartly cloudy.9 mph89%29.98 "HgN/A
10:00 PM75 °FPartly cloudy.9 mph83%29.98 "HgN/A
9:00 PM75 °FPartly cloudy.14 mph89%29.95 "HgN/A
4:30 PM81 °FBroken clouds.13 mph74%29.89 "HgN/A
4:00 PM81 °FBroken clouds.12 mph74%29.89 "HgN/A
3:00 PM79 °FBroken clouds.13 mph79%29.92 "HgN/A
1:00 PM79 °FBroken clouds.10 mph84%29.95 "HgN/A
12:00 PM77 °FBroken clouds.12 mph89%29.98 "HgN/A
10:00 AM77 °FDrizzle. Broken clouds.7 mph89%30.01 "Hg4 mi
9:00 AM75 °FBroken clouds.7 mph94%30.01 "Hg5 mi
8:00 AM73 °FDrizzle. More clouds than sun.3 mph94%29.98 "Hg4 mi
7:00 AM73 °FDrizzle. Mostly cloudy.7 mph94%29.95 "Hg1 mi
6:00 AM73 °FPartly cloudy.7 mph94%29.95 "Hg4 mi
3:00 AM73 °FPassing clouds.5 mph94%29.92 "Hg5 mi
2:00 AM73 °FPassing clouds.10 mph94%29.92 "Hg3 mi
1:00 AM73 °FPassing clouds.6 mph94%29.95 "Hg3 mi
12:00 AM73 °FPassing clouds.9 mph94%29.98 "Hg3 mi
Weather by CustomWeather, © 2014

See weather overviewHow to use our weather pages